SCP
0 0 0 0 0 0 0 0 0 0 0 0 0 0 0 0 0 1 1 1 1 1 1 1 1 1 1 1 0 0 0 0 0 0 0 0 0 0 0 0 0 0 0 0
0 0 0 0 0 0 0 0 0 0 0 0 0 0 0 0 0 0 1 1 1 1 1 1 1 1 1 1 0 1 1 1 1 1 0 0 0 0 0 0 0 0 0 0
0 0 0 0 0 0 0 0 0 0 0 0 0 0 0 0 0 0 1 1 1 1 1 1 1 1 1 1 1 1 1 1 1 1 0 0 0 0 0 0 0 0 0 0
0 0 0 0 0 0 0 0 0 0 0 0 0 0 0 0 0 0 0 0 0 0 0 0 1 1 1 1 1 1 1 1 1 1 0 0 0 0 0 0 0 0 0 0
0 0 0 0 0 0 0 0 0 0 0 0 0 0 0 0 0 0 0 0 0 0 0 0 0 1 1 1 1 1 1 1 1 0 0 0 0 0 0 0 0 0 0 0
0 0 0 0 0 0 0 0 0 0 0 0 0 0 0 0 0 0 0 0 0 0 0 0 0 0 0 0 0 0 0 0 0 0 0 0 0 0 0 0 0 0 0 0
0 0 0 0 0 0 0 0 0 0 0 0 0 0 0 0 0 0 0 0 0 0 0 0 0 0 0 0 0 0 0 0 0 0 0 0 0 0 0 0 0 0 0 0
0 0 0 0 0 0 0 0 0 0 0 0 0 0 0 0 0 0 0 0 0 0 0 0 0 0 0 0 0 0 0 0 0 0 0 0 0 0 0 0 0 0 0 0
0 0 0 0 0 0 0 0 0 0 0 0 0 0 0 0 0 0 0 0 0 0 0 0 0 0 0 0 0 0 0 0 0 0 0 0 0 0 0 0 0 0 0 0
0 0 0 0 0 0 0 0 0 0 0 0 0 0 0 0 0 0 0 0 0 0 0 0 0 0 0 0 0 0 0 0 0 0 0 0 0 0 0 0 0 0 0 0
0 0 0 0 0 0 0 0 0 0 0 0 0 0 0 0 0 0 0 0 0 0 0 0 0 0 0 0 0 0 0 0 0 0 0 0 0 0 0 0 0 0 0 0
0 0 0 0 0 0 0 0 0 0 0 0 0 0 0 0 0 0 0 0 0 0 0 0 0 0 0 0 0 0 0 0 0 0 0 0 0 0 0 0 0 0 0 0
0 0 0 0 0 0 0 0 0 0 0 0 0 0 0 0 0 0 0 0 0 0 0 0 0 0 0 0 0 0 0 0 0 0 0 0 0 0 0 0 0 0 0 0
0 0 0 0 0 0 0 0 0 0 0 0 0 0 0 0 0 0 0 0 0 0 0 0 0 0 0 0 0 0 0 0 0 0 0 0 0 0 0 0 0 0 0 0
0 0 0 0 0 0 0 0 0 0 0 0 0 0 0 0 0 0 0 0 0 0 0 0 0 0 0 0 0 0 0 0 0 0 0 0 0 0 0 0 0 0 0 0
0 0 0 0 0 0 0 0 0 0 0 0 0 0 0 0 0 0 0 0 0 0 0 0 0 0 0 0 0 0 0 0 0 0 0 0 0 0 0 0 0 0 0 0
0 0 0 0 0 0 0 0 0 0 0 0 0 0 0 0 0 0 0 0 0 0 0 0 0 0 0 0 0 0 0 0 0 0 0 0 0 0 0 0 0 0 0 0
0 0 0 0 0 0 0 0 0 0 0 0 0 0 0 0 0 0 0 0 0 0 0 0 0 0 0 0 0 0 0 0 0 0 0 0 0 0 0 0 0 0 0 0
0 0 0 0 0 0 0 0 0 0 0 0 0 0 0 0 0 0 0 0 0 0 0 0 0 0 0 0 0 0 0 0 0 0 0 0 0 0 0 0 0 0 0 0
0 0 0 0 0 0 0 0 0 0 0 0 0 0 0 0 0 0 0 0 0 0 0 0 0 0 0 0 0 0 0 0 0 0 0 0 0 0 0 0 0 0 0 0
0 0 0 0 0 0 0 0 0 0 0 0 0 0 0 0 0 0 0 0 0 0 0 0 0 0 0 0 0 0 0 0 0 0 0 0 0 0 0 0 0 0 0 0
0 0 0 0 0 0 0 0 0 0 0 0 0 0 0 0 0 0 0 0 0 0 0 0 0 0 0 0 0 0 0 0 0 0 0 0 0 0 0 0 0 0 0 0
0 0 0 0 0 0 0 0 0 0 0 0 0 0 0 0 0 0 0 0 0 0 0 0 0 0 0 0 0 0 0 0 0 0 0 0 0 0 0 0 0 0 0 0
0 0 0 0 0 0 0 0 0 0 0 0 0 0 0 0 0 0 0 0 0 0 0 0 0 0 0 0 0 0 0 0 0 0 0 0 0 0 0 0 0 0 0 0
0 0 0 0 0 0 0 0 0 0 0 0 0 0 0 0 0 0 0 0 0 0 0 0 0 0 0 0 0 0 0 0 0 0 0 0 0 0 0 0 0 0 0 0
0 0 0 0 0 0 0 0 0 0 0 0 0 0 0 0 0 0 0 0 0 0 0 0 0 0 0 0 0 0 0 0 0 0 0 0 0 0 0 0 0 0 0 0
0 0 0 0 0 0 0 0 0 0 0 0 0 0 0 0 0 0 0 0 0 0 0 0 0 0 0 0 0 0 0 0 0 0 0 0 0 0 0 0 0 0 0 0
Wind_Speed
8 10 7 6 8 7 7 8 9 9 10 11 10 10 10 9 7 6 8 9 10 10 9 8 8 8 8 8 8 8 8 9 9 8 7 6 6 5 5 4 5 4 3 2
7 8 6 8 9 9 9 8 9 9 11 11 10 7 8 8 6 8 10 10 9 9 8 8 9 9 9 8 8 8 9 9 8 7 7 7 6 6 5 5 4 4 3 2
6 6 5 10 10 11 10 9 9 12 12 9 7 7 7 6 5 7 8 7 6 5 5 5 6 7 9 10 9 9 10 9 9 8 8 7 6 6 5 4 3 3 2 1
2 1 8 11 6 9 11 13 11 10 9 8 7 5 4 5 6 6 7 7 6 4 3 1 1 4 6 7 8 10 9 9 9 9 8 7 7 6 5 4 3 2 2 2
2 2 9 12 9 5 6 9 9 9 6 5 5 4 3 0 5 7 7 7 5 5 4 4 4 2 2 4 6 7 8 8 9 9 9 8 8 7 5 4 3 3 2 3
3 1 6 12 10 5 2 5 6 4 5 6 7 4 4 2 5 7 7 7 7 6 6 6 4 5 6 4 3 3 5 6 6 7 8 9 8 6 4 4 4 3 3 3
3 3 9 15 11 4 1 5 3 3 5 6 6 7 6 8 6 7 7 7 7 7 6 5 4 7 7 6 4 2 2 3 4 4 5 5 5 4 4 4 4 3 3 3
3 4 11 7 7 2 5 3 2 4 3 4 3 5 9 9 8 8 7 6 6 6 5 4 5 7 7 4 2 3 4 4 3 3 2 4 4 4 4 5 4 3 3 2
4 7 10 11 11 13 6 3 3 3 3 5 6 6 7 8 8 7 7 6 5 6 4 3 4 6 6 3 3 4 4 3 1 1 1 2 4 4 3 4 3 3 3 3
4 8 14 16 15 12 5 4 4 4 5 5 6 8 8 9 8 7 6 6 5 5 4 3 2 3 4 4 4 4 3 2 1 1 1 2 3 3 4 4 3 3 3 3
7 9 14 14 17 15 9 1 3 2 2 4 6 8 10 10 8 7 6 5 5 5 5 5 3 3 3 3 4 3 2 1 1 1 1 1 2 2 2 3 4 4 4 4
6 6 10 19 21 21 16 7 2 2 1 1 4 8 10 9 8 8 7 6 5 5 5 4 4 4 3 3 3 3 2 1 1 1 1 2 3 3 6 4 3 2 2 3
8 12 16 22 22 19 14 10 4 4 3 2 3 7 10 8 8 8 7 7 7 6 4 4 5 5 4 4 4 4 2 1 1 2 2 2 2 3 2 3 5 5 4 4
15 16 22 22 19 19 17 14 8 4 4 4 5 7 8 7 8 9 9 9 7 5 5 5 6 5 5 4 4 4 2 1 2 2 2 2 3 3 3 3 2 0 2 3
17 16 19 20 20 18 14 10 7 5 3 4 5 8 10 10 11 11 9 7 5 5 6 6 6 5 5 5 5 4 2 1 1 2 2 2 2 2 3 3 3 2 2 2
14 15 16 17 17 16 12 10 8 7 5 5 7 9 11 12 11 9 7 7 7 7 7 7 7 6 5 6 5 3 2 3 3 2 1 1 1 2 2 3 3 3 3 3
15 17 15 15 16 14 11 9 8 8 6 7 9 9 9 9 8 7 7 7 7 7 7 7 7 6 6 6 5 3 2 2 2 2 1 1 1 2 2 3 3 3 2 3
16 18 16 15 15 15 13 10 8 7 6 8 8 9 10 11 10 9 7 6 5 5 5 7 7 7 6 5 4 3 2 2 1 2 2 2 2 2 2 2 3 3 2 2
19 15 17 18 16 14 12 10 9 7 6 6 9 11 11 11 10 8 7 8 8 7 6 7 11 8 6 5 5 3 2 2 2 2 2 3 2 2 2 2 2 2 3 2
23 18 16 16 15 13 11 10 9 7 6 7 9 9 9 9 8 9 9 8 7 6 9 9 8 6 5 5 5 3 3 3 3 3 2 2 2 2 2 2 2 2 2 2
24 24 20 15 14 12 11 10 8 8 6 7 10 12 11 9 9 9 8 5 4 7 10 12 7 5 5 5 5 3 3 3 3 3 3 2 2 2 2 2 2 2 2 1
24 23 23 16 12 11 10 8 7 7 6 7 9 10 9 9 8 7 6 5 8 13 9 6 5 8 8 7 4 4 4 3 3 3 3 2 2 2 2 2 2 1 1 1
21 22 23 18 12 11 8 6 7 6 6 7 9 11 11 10 9 8 6 5 8 13 9 6 10 13 12 6 4 4 4 4 3 3 3 2 2 2 3 3 2 2 2 1
22 23 23 18 9 5 5 6 5 5 5 6 8 11 11 8 4 3 6 12 14 14 8 10 16 15 11 4 4 4 4 4 3 3 3 3 3 3 3 3 3 2 2 3
21 22 21 17 9 4 4 3 3 3 4 4 6 7 8 8 8 8 9 11 15 13 8 13 17 14 7 5 5 4 4 3 3 3 3 3 3 3 3 3 3 3 3 2
19 18 17 15 10 6 2 3 4 4 5 5 4 5 5 6 9 9 9 10 12 12 9 7 8 8 5 5 5 5 4 4 3 3 3 3 3 3 3 3 3 3 2 2
17 15 14 13 11 6 2 3 5 5 6 8 7 5 7 8 9 9 10 9 8 8 7 6 6 5 5 5 5 5 4 3 3 3 3 3 3 3 3 3 3 2 2 2
Wind_Direction
249 261 264 264 267 256 221 208 212 233 234 247 243 242 250 256 250 208 194 192 188 191 197 196 192 189 187 187 181 173 171 179 188 188 187 188 195 203 208 209 205 193 178 173
274 272 286 282 268 264 256 233 225 232 245 245 251 247 250 252 236 205 197 196 196 198 198 199 197 194 191 192 189 180 184 192 191 187 189 196 201 203 205 204 191 172 162 159
266 285 315 275 247 247 247 229 219 231 237 241 250 237 232 238 212 191 183 181 185 189 197 208 211 200 198 200 191 189 197 198 192 191 194 197 193 186 188 183 170 165 164 170
244 313 254 256 248 243 255 259 242 234 233 225 219 218 222 191 149 132 122 117 117 118 116 117 222 211 204 196 192 197 201 198 192 190 193 189 181 182 180 170 174 185 213 228
160 243 278 286 270 232 233 267 255 232 216 176 151 86 359 242 131 131 127 126 121 115 105 71 40 38 128 171 191 197 200 197 192 188 186 181 185 186 180 172 185 202 219 225
135 197 264 267 280 322 277 287 293 184 170 158 133 128 229 185 110 111 114 116 114 108 91 70 49 66 77 85 126 192 207 200 188 182 182 183 188 186 176 175 192 204 218 214
149 212 262 267 288 317 168 259 314 115 140 151 173 195 176 139 126 125 120 116 109 95 81 72 77 81 75 71 73 90 110 131 149 165 179 187 186 178 174 176 184 199 207 209
165 214 253 296 339 265 223 233 109 103 126 143 158 133 134 139 139 133 123 120 114 103 96 88 95 95 88 79 75 81 82 89 107 133 169 180 175 178 175 171 179 192 202 224
214 238 277 318 305 292 251 171 141 128 138 134 135 148 150 150 148 140 135 139 135 128 123 111 112 116 116 136 123 100 89 84 84 118 162 168 174 177 169 167 171 189 195 216
288 283 304 312 313 307 264 165 161 163 161 154 163 168 163 159 154 146 146 156 152 145 153 177 165 139 143 147 130 117 122 134 134 141 178 193 184 170 165 171 180 193 200 213
303 306 317 322 332 328 314 225 140 153 183 177 166 169 170 167 161 158 163 169 163 168 189 210 191 171 163 145 121 110 115 131 139 138 126 118 117 124 170 183 187 191 205 199
265 284 300 300 311 318 312 289 193 153 158 190 164 167 165 164 161 162 170 175 178 188 202 213 184 177 174 151 129 117 91 100 139 140 119 117 113 82 52 63 78 131 158 167
255 280 286 290 298 302 306 291 237 187 189 186 164 158 157 155 160 164 175 183 192 196 193 179 165 170 176 160 138 130 132 145 160 153 144 141 144 141 128 59 45 45 51 68
275 281 283 285 291 298 301 294 266 221 198 178 163 152 150 146 155 169 186 198 195 177 165 161 159 172 177 158 141 136 134 139 149 159 162 164 169 172 167 166 168 71 36 55
263 261 266 278 285 290 294 291 272 246 217 183 161 155 155 157 169 185 197 195 170 161 164 161 160 169 162 147 140 144 146 154 161 172 170 169 173 174 174 172 163 153 143 100
273 271 271 274 280 287 293 293 271 249 223 193 176 173 170 168 174 185 190 173 163 177 176 168 166 166 151 141 142 148 168 182 164 159 158 139 140 149 155 157 158 162 171 168
277 270 269 273 279 285 285 287 277 257 223 196 189 176 162 159 165 179 189 185 180 177 169 163 160 153 144 142 145 153 166 182 166 147 157 148 128 126 133 141 155 169 180 181
280 263 259 263 274 280 282 286 283 263 226 205 177 160 163 168 177 186 184 161 143 139 155 153 146 141 138 139 139 142 151 163 169 175 165 154 146 137 133 138 152 154 141 151
316 287 265 256 258 263 267 270 268 256 231 187 169 174 178 180 179 170 154 149 151 158 168 156 147 139 139 143 135 130 143 145 134 123 131 142 137 129 131 138 146 152 154 155
328 315 291 263 252 252 256 258 255 246 222 185 175 175 174 177 168 158 158 171 179 168 157 154 146 143 146 143 130 119 127 132 131 127 125 133 141 141 141 149 153 156 164 178
328 323 309 280 255 248 246 246 242 235 218 182 176 181 181 175 163 156 158 173 176 147 148 149 144 144 145 142 128 118 119 122 126 131 134 135 137 143 151 155 161 170 180 194
325 323 317 297 258 247 245 236 226 221 204 187 185 176 163 159 160 158 164 161 154 150 144 140 140 149 150 140 127 126 126 126 123 124 126 128 129 133 139 143 147 158 168 184
320 319 319 307 266 242 241 229 216 204 192 183 174 169 166 165 162 157 163 150 146 149 142 144 149 148 142 132 129 129 129 128 126 126 129 127 125 123 122 122 114 105 97 94
321 322 320 313 286 236 227 229 214 199 185 175 173 168 158 147 141 132 128 141 144 138 138 149 148 144 134 127 127 127 130 130 129 127 121 112 109 110 110 110 104 93 88 85
319 319 320 321 309 270 238 213 163 152 143 142 151 153 152 149 146 140 134 141 142 135 136 155 152 142 132 132 134 135 138 142 141 137 132 126 120 113 110 107 106 105 101 94
317 316 315 311 301 281 233 161 151 147 134 123 118 117 110 107 117 124 128 133 138 136 138 142 141 132 130 137 139 141 142 141 135 133 138 135 134 131 129 125 118 116 114 108
313 315 317 322 326 316 256 168 154 154 150 141 132 124 125 125 126 128 130 133 136 137 138 137 134 132 137 142 145 148 149 146 143 139 137 134 134 133 135 132 128 124 120 109